Time,TemperatureF,DewpointF,PressureIn,WindDirection,WindDirectionDegrees,WindSpeedMPH,WindSpeedGustMPH,Humidity,HourlyPrecipIn,Conditions,Clouds,dailyrainin,SoftwareType,DateUTC
2013-01-13 00:11:00,26.4,25.0,29.95,North,10,0.0,0.0,95,0.00,,,0.40,weatherlink.com 1.10,2013-01-13 06:11:00,
2013-01-13 00:26:00,26.1,25.0,29.96,North,10,0.0,0.0,95,0.00,,,0.40,weatherlink.com 1.10,2013-01-13 06:26:00,
2013-01-13 00:41:00,26.1,25.0,29.96,North,10,0.0,0.0,95,0.00,,,0.40,weatherlink.com 1.10,2013-01-13 06:41:00,
2013-01-13 00:56:00,26.0,25.0,29.98,North,10,0.0,0.0,95,0.00,,,0.40,weatherlink.com 1.10,2013-01-13 06:56:00,
2013-01-13 01:11:00,25.9,25.0,29.98,North,10,0.0,0.0,95,0.00,,,0.40,weatherlink.com 1.10,2013-01-13 07:11:00,
2013-01-13 01:26:00,25.7,25.0,30.01,North,10,0.0,0.0,95,0.00,,,0.40,weatherlink.com 1.10,2013-01-13 07:26:00,
2013-01-13 01:41:00,25.4,24.0,30.02,North,10,0.0,0.0,95,0.00,,,0.40,weatherlink.com 1.10,2013-01-13 07:41:00,
2013-01-13 01:56:00,25.0,24.0,30.02,North,10,0.0,0.0,95,0.00,,,0.40,weatherlink.com 1.10,2013-01-13 07:56:00,
2013-01-13 02:11:00,24.6,23.0,30.03,North,10,0.0,0.0,95,0.00,,,0.40,weatherlink.com 1.10,2013-01-13 08:11:00,
2013-01-13 02:26:00,24.4,23.0,30.03,North,10,0.0,0.0,95,0.00,,,0.40,weatherlink.com 1.10,2013-01-13 08:26:00,
2013-01-13 02:41:00,24.2,23.0,30.02,North,10,0.0,0.0,95,0.00,,,0.40,weatherlink.com 1.10,2013-01-13 08:41:00,
2013-01-13 02:56:00,23.9,23.0,30.04,North,10,0.0,0.0,95,0.00,,,0.40,weatherlink.com 1.10,2013-01-13 08:56:00,
2013-01-13 03:11:00,23.2,22.0,30.06,North,10,0.0,0.0,95,0.00,,,0.40,weatherlink.com 1.10,2013-01-13 09:11:00,
2013-01-13 03:26:00,22.4,21.0,30.06,North,10,0.0,0.0,94,0.00,,,0.00,weatherlink.com 1.10,2013-01-13 09:26:00,
2013-01-13 03:41:00,22.1,20.0,30.06,North,10,0.0,0.0,93,0.00,,,0.00,weatherlink.com 1.10,2013-01-13 09:41:00,
2013-01-13 03:56:00,21.8,20.0,30.05,North,10,0.0,0.0,92,0.00,,,0.00,weatherlink.com 1.10,2013-01-13 09:56:00,
2013-01-13 04:11:00,21.6,20.0,30.04,North,10,0.0,0.0,92,0.00,,,0.00,weatherlink.com 1.10,2013-01-13 10:11:00,
2013-01-13 04:26:00,21.5,20.0,30.05,North,10,0.0,0.0,92,0.00,,,0.00,weatherlink.com 1.10,2013-01-13 10:26:00,
2013-01-13 04:41:00,21.6,20.0,30.08,North,10,0.0,0.0,92,0.00,,,0.00,weatherlink.com 1.10,2013-01-13 10:41:00,
2013-01-13 04:56:00,21.3,19.0,30.06,North,10,0.0,0.0,92,0.00,,,0.00,weatherlink.com 1.10,2013-01-13 10:56:00,
2013-01-13 05:11:00,21.4,20.0,30.07,North,10,0.0,0.0,92,0.00,,,0.00,weatherlink.com 1.10,2013-01-13 11:11:00,
2013-01-13 05:26:00,21.2,19.0,30.08,North,10,0.0,0.0,92,0.00,,,0.00,weatherlink.com 1.10,2013-01-13 11:26:00,
2013-01-13 05:41:00,21.2,19.0,30.07,North,10,0.0,0.0,91,0.00,,,0.00,weatherlink.com 1.10,2013-01-13 11:41:00,
2013-01-13 05:56:00,21.2,19.0,30.11,North,10,0.0,0.0,92,0.00,,,0.00,weatherlink.com 1.10,2013-01-13 11:56:00,
2013-01-13 06:11:00,21.0,19.0,30.12,North,10,0.0,0.0,91,0.00,,,0.00,weatherlink.com 1.10,2013-01-13 12:11:00,
2013-01-13 06:26:00,21.2,19.0,30.14,North,10,0.0,0.0,91,0.00,,,0.00,weatherlink.com 1.10,2013-01-13 12:26:00,
2013-01-13 06:41:00,21.2,19.0,30.14,North,10,0.0,0.0,91,0.00,,,0.00,weatherlink.com 1.10,2013-01-13 12:41:00,
2013-01-13 06:56:00,20.8,18.0,30.15,North,10,0.0,0.0,90,0.00,,,0.00,weatherlink.com 1.10,2013-01-13 12:56:00,
2013-01-13 07:11:00,20.5,18.0,30.16,North,10,0.0,0.0,90,0.00,,,0.00,weatherlink.com 1.10,2013-01-13 13:11:00,
2013-01-13 07:26:00,20.0,18.0,30.13,North,10,0.0,0.0,90,0.00,,,0.00,weatherlink.com 1.10,2013-01-13 13:26:00,
2013-01-13 07:41:00,20.0,18.0,30.13,North,10,0.0,0.0,91,0.00,,,0.00,weatherlink.com 1.10,2013-01-13 13:41:00,
2013-01-13 07:56:00,19.9,18.0,30.14,North,10,0.0,0.0,91,0.00,,,0.00,weatherlink.com 1.10,2013-01-13 13:56:00,
2013-01-13 08:11:00,19.4,17.0,30.15,North,10,0.0,0.0,90,0.00,,,0.00,weatherlink.com 1.10,2013-01-13 14:11:00,
2013-01-13 08:26:00,19.3,17.0,30.14,North,10,0.0,0.0,90,0.00,,,0.00,weatherlink.com 1.10,2013-01-13 14:26:00,
2013-01-13 08:41:00,19.4,17.0,30.16,North,10,0.0,0.0,90,0.00,,,0.00,weatherlink.com 1.10,2013-01-13 14:41:00,
2013-01-13 08:56:00,19.3,17.0,30.19,North,10,0.0,0.0,90,0.00,,,0.00,weatherlink.com 1.10,2013-01-13 14:56:00,
2013-01-13 09:11:00,19.3,17.0,30.21,North,10,0.0,0.0,90,0.00,,,0.00,weatherlink.com 1.10,2013-01-13 15:11:00,
2013-01-13 09:26:00,19.6,17.0,30.20,North,10,0.0,0.0,89,0.00,,,0.00,weatherlink.com 1.10,2013-01-13 15:26:00,
2013-01-13 09:42:00,19.7,17.0,30.22,North,10,0.0,0.0,89,0.00,,,0.00,weatherlink.com 1.10,2013-01-13 15:42:00,
2013-01-13 09:57:00,20.0,18.0,30.26,North,10,0.0,0.0,90,0.00,,,0.00,weatherlink.com 1.10,2013-01-13 15:57:00,
2013-01-13 10:12:00,20.0,18.0,30.23,North,10,0.0,0.0,90,0.00,,,0.00,weatherlink.com 1.10,2013-01-13 16:12:00,
2013-01-13 10:27:00,19.9,18.0,30.22,North,10,0.0,0.0,91,0.00,,,0.00,weatherlink.com 1.10,2013-01-13 16:27:00,
2013-01-13 10:42:00,20.2,18.0,30.22,North,10,0.0,0.0,92,0.00,,,0.00,weatherlink.com 1.10,2013-01-13 16:42:00,
2013-01-13 10:57:00,20.9,19.0,30.22,North,10,0.0,0.0,92,0.00,,,0.00,weatherlink.com 1.10,2013-01-13 16:57:00,
2013-01-13 11:12:00,20.6,18.0,30.23,North,10,0.0,0.0,91,0.00,,,0.00,weatherlink.com 1.10,2013-01-13 17:12:00,
2013-01-13 11:27:00,20.3,18.0,30.21,North,10,0.0,0.0,91,0.00,,,0.00,weatherlink.com 1.10,2013-01-13 17:27:00,
2013-01-13 11:42:00,20.2,18.0,30.21,North,10,0.0,0.0,91,0.00,,,0.00,weatherlink.com 1.10,2013-01-13 17:42:00,
2013-01-13 11:57:00,20.1,18.0,30.21,North,10,0.0,0.0,90,0.00,,,0.00,weatherlink.com 1.10,2013-01-13 17:57:00,
2013-01-13 12:12:00,21.4,19.0,30.20,North,10,0.0,0.0,90,0.00,,,0.00,weatherlink.com 1.10,2013-01-13 18:12:00,
2013-01-13 12:27:00,21.5,19.0,30.21,North,10,0.0,0.0,90,0.00,,,0.00,weatherlink.com 1.10,2013-01-13 18:27:00,
2013-01-13 12:42:00,21.0,18.0,30.21,North,10,0.0,0.0,87,0.00,,,0.00,weatherlink.com 1.10,2013-01-13 18:42:00,
2013-01-13 12:57:00,21.1,18.0,30.21,North,10,0.0,0.0,89,0.00,,,0.00,weatherlink.com 1.10,2013-01-13 18:57:00,
2013-01-13 13:12:00,20.2,17.0,30.22,North,10,0.0,0.0,88,0.00,,,0.00,weatherlink.com 1.10,2013-01-13 19:12:00,
2013-01-13 13:27:00,20.6,18.0,30.23,North,10,0.0,0.0,89,0.00,,,0.00,weatherlink.com 1.10,2013-01-13 19:27:00,
2013-01-13 13:42:00,20.7,18.0,30.24,North,10,0.0,0.0,88,0.00,,,0.00,weatherlink.com 1.10,2013-01-13 19:42:00,
2013-01-13 13:57:00,20.7,18.0,30.25,North,10,0.0,0.0,90,0.00,,,0.00,weatherlink.com 1.10,2013-01-13 19:57:00,
2013-01-13 14:12:00,20.9,18.0,30.25,North,10,0.0,0.0,89,0.00,,,0.00,weatherlink.com 1.10,2013-01-13 20:12:00,
2013-01-13 14:27:00,20.8,18.0,30.26,North,10,0.0,0.0,89,0.00,,,0.00,weatherlink.com 1.10,2013-01-13 20:27:00,
2013-01-13 14:42:00,21.1,18.0,30.27,North,10,0.0,0.0,89,0.00,,,0.00,weatherlink.com 1.10,2013-01-13 20:42:00,
2013-01-13 14:57:00,21.3,19.0,30.28,North,10,0.0,0.0,89,0.00,,,0.00,weatherlink.com 1.10,2013-01-13 20:57:00,
2013-01-13 15:12:00,21.2,19.0,30.29,North,10,0.0,0.0,89,0.00,,,0.00,weatherlink.com 1.10,2013-01-13 21:12:00,
2013-01-13 15:27:00,21.1,18.0,30.30,North,10,0.0,0.0,87,0.00,,,0.00,weatherlink.com 1.10,2013-01-13 21:27:00,
2013-01-13 15:42:00,22.7,19.0,30.30,North,10,0.0,0.0,87,0.00,,,0.00,weatherlink.com 1.10,2013-01-13 21:42:00,
2013-01-13 15:57:00,23.5,20.0,30.31,North,10,0.0,0.0,87,0.00,,,0.00,weatherlink.com 1.10,2013-01-13 21:57:00,
2013-01-13 16:12:00,23.4,20.0,30.31,North,10,0.0,0.0,87,0.00,,,0.00,weatherlink.com 1.10,2013-01-13 22:12:00,
2013-01-13 16:27:00,22.4,19.0,30.31,North,10,0.0,0.0,86,0.00,,,0.00,weatherlink.com 1.10,2013-01-13 22:27:00,
2013-01-13 16:42:00,21.1,18.0,30.31,North,10,0.0,0.0,87,0.00,,,0.00,weatherlink.com 1.10,2013-01-13 22:42:00,
2013-01-13 16:57:00,20.7,18.0,30.31,North,10,0.0,0.0,88,0.00,,,0.00,weatherlink.com 1.10,2013-01-13 22:57:00,
2013-01-13 17:12:00,20.1,17.0,30.32,North,10,0.0,0.0,88,0.00,,,0.00,weatherlink.com 1.10,2013-01-13 23:12:00,
2013-01-13 17:27:00,19.9,17.0,30.32,North,10,0.0,0.0,88,0.00,,,0.00,weatherlink.com 1.10,2013-01-13 23:27:00,
2013-01-13 17:42:00,19.8,17.0,30.33,North,10,0.0,0.0,88,0.00,,,0.00,weatherlink.com 1.10,2013-01-13 23:42:00,
2013-01-13 17:57:00,19.4,16.0,30.33,North,10,0.0,0.0,88,0.00,,,0.00,weatherlink.com 1.10,2013-01-13 23:57:00,
2013-01-13 18:12:00,19.2,17.0,30.34,North,10,0.0,0.0,89,0.00,,,0.00,weatherlink.com 1.10,2013-01-14 00:12:00,
2013-01-13 18:27:00,18.8,16.0,30.34,North,10,0.0,0.0,88,0.00,,,0.00,weatherlink.com 1.10,2013-01-14 00:27:00,
2013-01-13 18:42:00,18.3,16.0,30.34,North,10,0.0,0.0,89,0.00,,,0.00,weatherlink.com 1.10,2013-01-14 00:42:00,
2013-01-13 18:57:00,18.1,15.0,30.35,North,10,0.0,0.0,89,0.00,,,0.00,weatherlink.com 1.10,2013-01-14 00:57:00,
2013-01-13 19:12:00,18.0,15.0,30.34,North,10,0.0,0.0,87,0.00,,,0.00,weatherlink.com 1.10,2013-01-14 01:12:00,
2013-01-13 19:27:00,17.7,15.0,30.34,North,10,0.0,0.0,87,0.00,,,0.00,weatherlink.com 1.10,2013-01-14 01:27:00,
2013-01-13 19:42:00,17.5,14.0,30.35,North,10,0.0,0.0,87,0.00,,,0.00,weatherlink.com 1.10,2013-01-14 01:42:00,
2013-01-13 19:57:00,17.2,14.0,30.35,North,10,0.0,0.0,86,0.00,,,0.00,weatherlink.com 1.10,2013-01-14 01:57:00,
2013-01-13 20:12:00,16.9,13.0,30.36,North,10,0.0,0.0,86,0.00,,,0.00,weatherlink.com 1.10,2013-01-14 02:12:00,
2013-01-13 20:27:00,16.7,14.0,30.36,North,10,0.0,0.0,87,0.00,,,0.00,weatherlink.com 1.10,2013-01-14 02:27:00,
2013-01-13 20:42:00,16.5,13.0,30.36,North,10,0.0,0.0,87,0.00,,,0.00,weatherlink.com 1.10,2013-01-14 02:42:00,
2013-01-13 20:57:00,16.3,13.0,30.36,North,10,0.0,0.0,87,0.00,,,0.00,weatherlink.com 1.10,2013-01-14 02:57:00,
2013-01-13 21:12:00,16.0,13.0,30.36,North,10,0.0,0.0,87,0.00,,,0.00,weatherlink.com 1.10,2013-01-14 03:12:00,
2013-01-13 21:27:00,15.9,13.0,30.37,North,10,0.0,0.0,87,0.00,,,0.00,weatherlink.com 1.10,2013-01-14 03:27:00,
2013-01-13 21:42:00,15.7,13.0,30.38,North,10,0.0,0.0,88,0.00,,,0.00,weatherlink.com 1.10,2013-01-14 03:42:00,
2013-01-13 21:57:00,15.7,13.0,30.39,North,10,0.0,0.0,88,0.00,,,0.00,weatherlink.com 1.10,2013-01-14 03:57:00,
2013-01-13 22:13:00,15.8,13.0,30.40,North,10,0.0,0.0,88,0.00,,,0.00,weatherlink.com 1.10,2013-01-14 04:13:00,
2013-01-13 22:28:00,15.9,13.0,30.41,North,10,0.0,0.0,88,0.00,,,0.00,weatherlink.com 1.10,2013-01-14 04:28:00,
2013-01-13 22:43:00,15.5,12.0,30.42,North,10,0.0,0.0,87,0.00,,,0.00,weatherlink.com 1.10,2013-01-14 04:43:00,
2013-01-13 22:58:00,15.4,13.0,30.42,North,10,0.0,0.0,88,0.00,,,0.00,weatherlink.com 1.10,2013-01-14 04:58:00,
2013-01-13 23:13:00,15.2,12.0,30.42,North,10,0.0,0.0,88,0.00,,,0.00,weatherlink.com 1.10,2013-01-14 05:13:00,
2013-01-13 23:28:00,15.4,13.0,30.43,North,10,0.0,0.0,88,0.00,,,0.00,weatherlink.com 1.10,2013-01-14 05:28:00,
2013-01-13 23:43:00,15.6,12.0,30.43,North,10,0.0,0.0,87,0.00,,,0.00,weatherlink.com 1.10,2013-01-14 05:43:00,
2013-01-13 23:58:00,15.7,13.0,30.43,North,10,0.0,0.0,87,0.00,,,0.00,weatherlink.com 1.10,2013-01-14 05:58:00,